Погода в Николо-Павловском

Россия / Свердловская область     57°47′11″N   60°03′11″E
темп.,
°C
ветер,
м/с
пор.,
м/с
влажн.,
%
обл.,
%
осадки,
мм/ч
давл.,
гПа
погр.,
м
7 мая, пт
пт723:00+3зюз22700 0.0 101519
02:00+3зюз24700 0.0 101658
05:00+2юз22805 0.0 101834
08:00+9зюз3861100 0.0 1018386
11:00+15зюз475057 0.0 10171035
14:00+19зюз574035 0.0 10172257
17:00+17з4746100 0.0 10171024
20:00+14юз236153 0.0 101756
8 мая, сб
сб823:00+13зюз2264100 0.0 101842
02:00+12юз2164100 0.0 101814
05:00+12юз116692 0.0 101810
08:00+14юз125796 0.0 1018179
11:00+19зюз2334100 0.0 10172506
14:00+20з433496 0.0 10172372
17:00+19сз3338100 0.0 10172029
20:00+16ссз2254100 0.0 101860
9 мая, вс
вс923:00+12сз116892 0.0 101810
02:00+10сз117573 0.0 101919
05:00+7с118917 0.0 102011
08:00+13ссв226741 0.0 1020298
11:00+19всв234420 0.0 10191344
14:00+19в3434100 0.0 10182308
17:00+20в343345 0.0 10182274
20:00+16вюв244968 0.0 1019102
10 мая, пн
пн1023:00+11зюз10745 0.0 102010
02:00+10юз00775 0.0 102010
05:00+9юз11805 0.0 102110
08:00+15юв11575 0.0 1021234
11:00+21ююз2335100 0.0 10211674
14:00+22юз4529100 0.0 10202657
17:00+22зюз462962 0.0 10192702
20:00+13сз61170100 0.0 1022617
11 мая, вт
вт1123:00+11зсз3885100 0.1 1021411
02:00+7ссз4881100 0.6 1026923
05:00+4сз26875 0.6 1028173
08:00+9ссз37560 0.0 1028766
11:00+14ссз463013 0.0 10281895
14:00+16сз5630100 0.0 10272188
17:00+16сз5734100 0.0 10272102
20:00+12зсз3851100 0.0 1028785